Ash Shahamah, UAE

8:51 AM +04 on April 21, 2018 (GMT +0400)
Ash Shahamah

Weather History for 41217 - August, 2013

Change the Weather History Date:

Sunday, August 11, 2013

  Actual Average Record
Temperature  
Mean Temperature 100 °F -  
Max Temperature 109 °F 105 °F - ()
Min Temperature 91 °F 82 °F - ()
Cooling Degree Days 35    
Growing Degree Days 50 (Base 50)    
Moisture  
Dew Point 76 °F    
Average Humidity 50    
Maximum Humidity 71    
Minimum Humidity 19    
Precipitation  
Precipitation 0.00 in 0.00 in - ()
Sea Level Pressure  
Sea Level Pressure 29.45 in    
Wind  
Wind Speed 7 mph ()    
Max Wind Speed 18 mph    
Max Gust Speed -    
Visibility 5.1 miles    
Events      
T = Trace of Precipitation, MM = Missing Value Source: Averaged Metar Reports

Daily Weather History Graph

Daily Weather History Graph

Search for Another Location

Airport or City:

Astronomy

Aug. 11, 2013 Rise Set
Actual Time 5:54 AM +04 6:58 PM +04
Civil Twilight 5:30 AM +04 7:22 PM +04
Nautical Twilight 5:02 AM +04 7:50 PM +04
Astronomical Twilight 4:32 AM +04 8:19 PM +04
Moon 9:42 AM +04 (8/11) 9:38 PM +04 (8/11)
Length of Visible Light 13h 52m
Length of Day
13h 04m
Waxing Crescent, 19% of the Moon is Illuminated
Aug 11
Waxing Crescent
Aug 14
First Quarter
Aug 21
Full
Aug 28
Last Quarter
Sep 5
New

Hourly Weather History & Observations

Time (+04) Temp. Heat Index Dew Point Humidity Pressure Visibility Wind Dir Wind Speed Gust Speed Precip Events Conditions
12:00 AM 98.6 °F 107.7 °F 71.6 °F 42% 29.44 in 5.0 mi SSW 4.6 mph - N/A   Unknown
1:00 AM 98 °F - 72 °F 35% 29.45 in 6 mi NW 3.5 mph - -   Widespread Dust
1:00 AM 98.6 °F 109.2 °F 73.4 °F 44% 29.44 in 5.6 mi NW 3.5 mph - N/A   Unknown
2:00 AM 96.8 °F 107.3 °F 73.4 °F 47% 29.42 in 5.6 mi North 4.6 mph - N/A   Unknown
3:00 AM 93.2 °F 113.6 °F 80.6 °F 67% 29.42 in 5.6 mi NNW 8.1 mph - N/A   Unknown
4:00 AM 93 °F - 80 °F 59% 29.43 in 6 mi NNW 6.9 mph - -   Mostly Cloudy
4:00 AM 93.2 °F 113.6 °F 80.6 °F 67% 29.42 in - NNW 6.9 mph - N/A   Clear
5:00 AM 93.2 °F 107.2 °F 77.0 °F 59% 29.44 in - North 6.9 mph - N/A   Clear
6:00 AM 91.4 °F 100.1 °F 73.4 °F 55% 29.44 in 5.6 mi NE 6.9 mph - N/A   Unknown
7:00 AM 93 °F - 72 °F 41% 29.47 in 4 mi NE 3.5 mph - -   Widespread Dust
7:00 AM 93.2 °F 100.5 °F 71.6 °F 49% 29.47 in 4.3 mi NE 3.5 mph - N/A   Unknown
8:00 AM 96.8 °F 109.6 °F 75.2 °F 50% 29.47 in 4.3 mi SE 9.2 mph - N/A   Unknown
9:00 AM 98.6 °F 107.7 °F 71.6 °F 42% 29.50 in 4.3 mi SSE 9.2 mph - N/A   Unknown
10:00 AM 102.2 °F 108.4 °F 68.0 °F 33% 29.50 in 4.3 mi SSE 11.5 mph - N/A   Unknown
11:00 AM 105.8 °F 113.2 °F 68.0 °F 30% 29.47 in 5.0 mi SSE 9.2 mph - N/A   Unknown
12:00 PM 107.6 °F 113.2 °F 66.2 °F 26% 29.47 in 5.0 mi South 10.4 mph - N/A   Unknown
12:31 PM 109.4 °F 115.6 °F 66.2 °F 25% 29.44 in 5.0 mi WSW 11.5 mph - N/A   Unknown
1:00 PM 108 °F - 68 °F 19% 29.46 in 5 mi WSW 8.1 mph - -   Widespread Dust
1:00 PM 109.4 °F 117.7 °F 68.0 °F 27% 29.44 in 5.0 mi WSW 8.1 mph - N/A   Unknown
1:01 PM 109.4 °F 117.7 °F 68.0 °F 27% 29.44 in 5.0 mi NW 12.7 mph - N/A   Unknown
2:00 PM 104.0 °F 128.0 °F 80.6 °F 48% 29.44 in 5.0 mi WNW 15.0 mph - N/A   Unknown
3:00 PM 100.4 °F 126.1 °F 82.4 °F 56% 29.44 in 5.0 mi WNW 18.4 mph - N/A   Unknown
4:00 PM 98.6 °F 128.0 °F 84.2 °F 63% 29.42 in 5.0 mi NW 17.3 mph - N/A   Unknown
5:00 PM 96.8 °F 121.7 °F 82.4 °F 63% 29.42 in 5.0 mi NW 18.4 mph - N/A   Unknown
6:00 PM 96.8 °F 121.7 °F 82.4 °F 63% 29.42 in 5.0 mi NW 15.0 mph - N/A   Unknown
7:00 PM 95 °F - 84 °F 64% 29.45 in 5 mi NNW 13.8 mph - -   Widespread Dust
7:00 PM 95.0 °F 123.7 °F 84.2 °F 71% 29.44 in 5.0 mi NNW 13.8 mph - N/A   Unknown
8:00 PM 95.0 °F 123.7 °F 84.2 °F 71% 29.47 in - NNW 12.7 mph - N/A   Clear
9:00 PM 95.0 °F 123.7 °F 84.2 °F 71% 29.47 in - North 10.4 mph - N/A   Clear
10:00 PM 95 °F - 81 °F 57% 29.51 in 6 mi NE 8.1 mph - -  
10:00 PM 95.0 °F 115.8 °F 80.6 °F 63% 29.50 in - NE 8.1 mph - N/A   Clear
11:00 PM 95.0 °F 115.8 °F 80.6 °F 63% 29.50 in - NNE 8.1 mph - N/A   Clear